Flag for Austria Weather past 2 weeks in Liezen, Styria, Austria

Now
66 °F

Broken clouds.


Feels Like: 66 °F
Forecast: 54 / 76 °F
Wind: 2 mph from North

Location: Zeltweg

Current Time: Jul 23, 2014 at 12:00:09 PM

Latest Report: Jul 23, 2014 at 11:20 AM


Visibility: 12 mi

Pressure: 29.98 "Hg

Humidity: 78%

Dew point: 59 °F

Location of LiezenLocation

Historic Weather in Liezen — Graph

°F

Liezen temperature yesterday

Maximum temperature yesterday: 75 °F (at 1:20 PM)
Minimum temperature yesterday: 57 °F (at 4:50 AM)
Average temperature yesterday: 67 °F

Past Weeks' High & Low Weather Summary

 TemperatureHumidityPressure
High86 °F (Jul 20, 12:50 PM)100% (Jul 14, 4:50 AM)30.24 "Hg (Jul 14, 4:50 AM)
Low50 °F (Jul 10, 5:50 AM)32% (Jul 18, 6:50 PM)29.68 "Hg (Jul 8, 6:50 PM)
Average66 °F70%29.97 "Hg
* Reported Jul 8 10:20 AM — Jul 23 10:20 AM, Liezen, Weather by CustomWeather, © 2014

Note: Actual official high and low records may vary slightly from our data, if they occured in-between our weather recording intervals... More about our weather records

Advertising

Liezen weather history for previous 24 hours

 ConditionsComfort  
Time TempWeatherWind HumidityBarometerVisibility
10:20 AM
Jul 23
66 °FBroken clouds.2 mph78%29.98 "Hg12 mi
9:50 AM64 °FScattered clouds.2 mph83%29.98 "Hg9 mi
7:50 AM61 °FBroken clouds.2 mph94%29.98 "Hg6 mi
7:20 AM59 °FSleet. Fog.3 mph100%29.98 "Hg5 mi
6:50 AM59 °FSleet. Fog.2 mph100%29.95 "Hg6 mi
5:50 AM61 °FSleet. Partly cloudy.1 mph94%29.95 "Hg4 mi
6:50 PM
Jul 22
64 °FSprinkles. Broken clouds.3 mph88%29.89 "Hg9 mi
5:50 PM64 °FSprinkles. Broken clouds.1 mph88%29.89 "Hg9 mi
4:50 PM66 °FBroken clouds.1 mph83%29.89 "Hg9 mi
4:20 PM64 °FRain showers. Broken clouds.5 mph88%29.89 "Hg6 mi
3:50 PM66 °FSprinkles. Broken clouds.7 mph83%29.86 "Hg9 mi
3:20 PM66 °FSprinkles. Broken clouds.8 mph83%29.86 "Hg9 mi
2:50 PM72 °FThunderstorms. Broken clouds.3 mph65%29.83 "Hg12 mi
2:20 PM73 °FBroken clouds.1 mph57%29.83 "Hg16 mi
1:50 PM73 °FBroken clouds.3 mph57%29.83 "Hg19 mi
1:20 PM75 °FBroken clouds.2 mph54%29.83 "Hg19 mi
12:50 PM73 °FPartly sunny.2 mph57%29.86 "Hg19 mi
12:20 PM72 °FPartly sunny.3 mph61%29.86 "Hg19 mi
Weather by CustomWeather, © 2014

See weather overviewHow to use our weather pages